ARIANE 5 R/B, 27387

Orbit data source: Space-Track

ARIANE 5 R/B, 27387 is space debris in SSO originally from a launch on Fri, 01 Mar 2002 UTC launched from the French Guiana (FRGUI). Debris objects in space refer to the collection of defunct objects orbiting the Earth. Examples of debris include non-operational satellites, rocket bodies, and fragments generated from explosions, collisions, or faulty payload assembly.

Loading next visibility...
Identifier
27387, 2002-009B
Orbit
SSO
Country
Flag of FRFR
Related business
Manufacturer
Astrium
Mission
Spacecraft
Bus & Motor
EPS, AESTUS
Mass
1,190 kg wet, 1,190 kg dry
Launch date (UTC)
2002-03-01 (24 years ago)
Launch vehicle
Unknown
Launch site
French Guiana (FRGUI)
Object type
Payload
Rocket body
Debris
Shape & HBR
Cone + Cyl, 2.7 m
Radar Cross Section
25.858 m², Large (>1 m²)

Expand to show TLE details & history
Last TLE update: 11 hours ago

TLE from 11 hours ago
0 ARIANE 5 R/B
1 27387U 02009B   26207.60312903  .00000083  00000-0  43735-4 0  9996
2 27387  98.8085 226.6685 0032295  11.7911 348.4024 14.36801007278971
Epoch: 2026-07-26T14:28Z
TLE epoch observation values (Epoch: 2026-07-26T14:28:30.348Z)
Latitude
0.00003°
Longitude
65.24336°
Altitude
749.41 km
Speed
7.492 km/s
True Right ascension
15h 06m 40s
True Declination
0° 00' 00"
Sunlit
Object was in daylight at epoch
Visualization orbit readout
Latitude
Unknown
Longitude
Unknown
Altitude
Unknown
Speed
Unknown
Apparent Right ascension
Unknown
Apparent Declination
Unknown
Sunlit
N/A
Visualization observer readout
Local Sidereal Time
14:41:11
Azimuth
Unknown
Elevation
Unknown
Doppler factor
Unknown
Orbital elements
Apogee altitude
789.301 km
Perigee altitude
743.156 km
Semi-major axis
7,144.365 km
Eccentricity
0.00323
Inclination
98.8085°
RAAN
226.6685°
Arg. of periapsis
11.7911°
True anomaly
348.32771°
Mean anomaly
348.4024°
Eccentric anomaly
348.36508°
Mean motion
3.59416 °/min
Orbital period
100.16 mins
BSTAR
0.000043735
Loading maneuver chart data...
Computing Atmospheric mass density...
Loading historical data...
Loading historical data...
Loading historical data...
Loading historical data...
Loading historical data...
Loading historical data...
Loading historical data...
Other satellites on launch #9 in the year 2002 (2002-03-01 UTC)

Documentation

Showing up to 5 results
|